sat.trackr.live / text

‹ back to catalog

OBZOR-R 1

NORAD 67234 · 2025-310A

PAYLOAD ACTIVE UNKNOWN

§ Identity

Operator
Country
CIS
Launch date
2025-12-25
Launch site
PLMSC
Launch vehicle
Mass (kg)
RCS (m²)

External: N2YO · Heavens-Above · Gunter

§ Orbital elements

Epoch: 2026-05-24T23:21:39.845376Z

Period
97.57 min
Inclination
97.9648°
Eccentricity
0.0001332
Mean motion
14.75876797 rev/d
Perigee alt
641.4 km
Apogee alt
643.3 km
Semi-major
7,020.5 km
B*
2.3863e-5
RAAN
152.5948°
Arg perigee
77.1073°
Mean anomaly
283.0285°
Rev number
2,220

§ Raw data

OBZOR-R 11 67234U 25310A   26144.97337784  .00000114  00000+0  23863-4 0  99992 67234  97.9648 152.5948 0001332  77.1073 283.0285 14.75876797 22200

JSON: /api/v1/satellites/67234 · /tle

For live sub-satellite position, see the globe view (requires WebGL).

§ Visibility from observer

Set your observer location to see the next 7 days of passes ≥ 10°. The values pass through the URL so the page stays shareable.

No JS? Fill the form by hand. The geolocation button needs JavaScript.